Regional Weather Roundup
Issued by NWS

Home | Current Version | Previous Version | Text Only | Print | Product List | Glossary On
Versions: 1 2 3 4 5 6 7 8 9 10 11 12 13 14 15 16 17 18 19 20 21 22 23 24 25 26 27 28 29 30 31 32 33 34 35 36 37 38 39 40 41 42 43 44 45 46 47 48 49 50
000
ASUS43 KMKX 281800
RWRWI

WISCONSIN REGIONAL WEATHER ROUNDUP
NATIONAL WEATHER SERVICE MILWAUKEE/SULLIVAN WI
1200 PM CST SUN DEC 28 2014

NOTE: "FAIR" INDICATES FEW OR NO CLOUDS BELOW 12,000 FEET WITH NO
SIGNIFICANT WEATHER AND/OR OBSTRUCTIONS TO VISIBILITY.

WIZ001-002-006>008-014>016-023>028-281900-
NORTHWEST WISCONSIN

CITY           SKY/WX    TMP DP  RH WIND       PRES   REMARKS
SUPERIOR ARPT  SUNNY     14  -1  51 NW8       30.21F WCI   3
ASHLAND        MOSUNNY   17   4  56 W8        30.17R WCI   7
6HR MIN TEMP:  14; 6HR MAX TEMP:  18; 6HR PCP: TRACE;

HAYWARD        MOSUNNY   17   9  70 VRB5      30.13S WCI  10
6HR MIN TEMP:  16; 6HR MAX TEMP:  19; 6HR PCP: TRACE;

SIREN          PTSUNNY   21  11  66 N9        30.16S WCI  11
CUMBERLAND     FLURRIES  19  14  79 N6        30.13S WCI  11
RICE LAKE      FLURRIES  19  14  80 NW3       30.16S
6HR MIN TEMP:  13; 6HR MAX TEMP:  19;

CHETEK         LGT SNOW  18  13  81 CALM      30.15S
LADYSMITH      LGT SNOW  16  13  90 CALM      30.14S
6HR MIN TEMP:   7; 6HR MAX TEMP:  16;

EAU CLAIRE     NOT AVBL
MENOMONIE      FLURRIES  17  12  80 CALM      30.16F
6HR MIN TEMP:   3; 6HR MAX TEMP:  17;

NEW RICHMOND   LGT SNOW  17  13  81 N5        30.16S WCI  10
OSCEOLA        CLOUDY    19  15  83 N5        30.20S WCI  12
$$

WIZ003>005-009-010-017-018-281900-
NORTH CENTRAL WISCONSIN

CITY           SKY/WX    TMP DP  RH WIND       PRES   REMARKS
MANITOWISH WTR FLURRIES  16   9  75 NW10      30.06R WCI   3
ARBOR VITAE    PTSUNNY   19  13  78 NW10      30.05F WCI   8
WOODRUFF       PTSUNNY   19  13  78 NW10      30.05F WCI   8
RHINELANDER    PTSUNNY   16  11  80 W9        30.06S WCI   4
6HR MIN TEMP:   3; 6HR MAX TEMP:  17;

EAGLE RIVER    MOSUNNY   18  10  70 NW12      30.03F WCI   5
LAND O LAKES   MOSUNNY   18  11  74 W10       30.04S WCI   6
PHILLIPS       FLURRIES  17  12  82 W3        30.08S
6HR MIN TEMP:   9; 6HR MAX TEMP:  17;

TOMAHAWK       CLOUDY    18  13  82 CALM      30.08S
MEDFORD        LGT SNOW  13  10  89 SW3       30.10S
MERRILL        LGT SNOW  16  14  92 CALM      30.10S
$$

WIZ029-030-035-036-043>047-281900-
CENTRAL WISCONSIN

CITY           SKY/WX    TMP DP  RH WIND       PRES   REMARKS
WAUSAU         CLOUDY    17  13  84 NW8       30.10S FOG     WCI   7
6HR MIN TEMP:  10; 6HR MAX TEMP:  17; 6HR PCP: TRACE;

MOSINEE        LGT SNOW  18  18 100 W3        30.12S
MARSHFIELD     CLOUDY    16  11  80 NW5       30.11F WCI   9
6HR MIN TEMP:  10; 6HR MAX TEMP:  16;

STEVENS POINT  CLOUDY    18  14  84 W3        30.12F
WAUPACA        SUNNY     28  18  66 W5        30.13F WCI  23
6HR MIN TEMP:  17; 6HR MAX TEMP:  28;

WAUTOMA        NOT AVBL
WISC RAPIDS    CLOUDY    23  15  71 W5        30.14F WCI  17
6HR MIN TEMP:  12; 6HR MAX TEMP:  23;

CAMP DOUGLAS   NOT AVBL
$$

WIZ011>013-019>022-031-037>040-048>050-281900-
NORTHEAST WISCONSIN

CITY           SKY/WX    TMP DP  RH WIND       PRES   REMARKS
ANTIGO         FLURRIES  15  12  90 NW8       30.07F WCI   4
SHAWANO        SUNNY     24  16  70 W6        30.12F WCI  17
6HR MIN TEMP:  16; 6HR MAX TEMP:  24;

OCONTO         SUNNY     24  16  71 W8        30.12S WCI  15
STURGEON BAY   SUNNY     23  14  68 W9        30.11S WCI  13
6HR MIN TEMP:  19; 6HR MAX TEMP:  23;

GREEN BAY      SUNNY     26  18  71 W8        30.13S WCI  18
6HR MIN TEMP:  20; 6HR MAX TEMP:  26;

MANITOWOC      NOT AVBL
APPLETON       PTSUNNY   25  16  68 NW7       30.13S WCI  17
CLINTONVILLE   MOSUNNY   25  18  74 W6        30.12F WCI  18
OSHKOSH        SUNNY     26  18  71 W6        30.13F WCI  19
6HR MIN TEMP:  18; 6HR MAX TEMP:  26;

$$

WIZ032>034-041-042-053>061-281900-
SOUTHWEST WISCONSIN

CITY           SKY/WX    TMP DP  RH WIND       PRES   REMARKS
LA CROSSE      SUNNY     23  14  68 VRB3      30.17F
6HR MIN TEMP:  13; 6HR MAX TEMP:  23;

SPARTA         SUNNY     23  16  73 S3        30.16F
VIROQUA        SUNNY     25  20  81 W5        30.12F WCI  19
BOSCOBEL       SUNNY     29  18  63 SW5       30.17F WCI  24
6HR MIN TEMP:  13; 6HR MAX TEMP:  29;

PRAIRIE DU CHI SUNNY     27  18  68 S3        30.18F
PLATTEVILLE    SUNNY     27  21  77 CALM      30.16F
$$

WIZ056-057-062-063-064-067-068-281900-
SOUTH CENTRAL WISCONSIN

CITY           SKY/WX    TMP DP  RH WIND       PRES   REMARKS
REEDSBURG      MOSUNNY   26  17  69 W5        30.14F WCI  20
BARABOO/DELLS  SUNNY     27  17  66 W6        30.14S WCI  20
LONE ROCK      NOT AVBL
MINERAL POINT  SUNNY     30  21  69 SW7       30.13F WCI  23
MADISON        MOSUNNY   29  18  63 VRB6      30.14F WCI  23
6HR MIN TEMP:  17; 6HR MAX TEMP:  29;

MIDDLETON      SUNNY     31  19  59 NW8       30.14F WCI  24
WATERTOWN      SUNNY     28  19  70 W5        30.14F WCI  23
MONROE         SUNNY     30  21  69 W3        30.14F
JANESVILLE     SUNNY     30  19  64 SW5       30.15F WCI  25
$$

WIZ051-052-058>065-066-070>072-281900-
SOUTHEAST WISCONSIN

CITY           SKY/WX    TMP DP  RH WIND       PRES   REMARKS
MILWAUKEE      MOSUNNY   31  16  54 W7        30.13F WCI  24
6HR MIN TEMP:  22; 6HR MAX TEMP:  31;

WAUKESHA       SUNNY     28  18  64 W9        30.15S WCI  20
MILWAUKEE/TIMM SUNNY     30  18  59 W10       30.14F WCI  21
RACINE         SUNNY     31  17  56 W6        30.15F WCI  25
6HR MIN TEMP:  22; 6HR MAX TEMP:  31;

BURLINGTON     SUNNY     29  19  64 W9        30.15F WCI  21
KENOSHA        SUNNY     31  18  58 W10       30.14F WCI  22
6HR MIN TEMP:  21; 6HR MAX TEMP:  31;

FOND DU LAC    SUNNY     27  17  66 W7        30.13F WCI  19
6HR MIN TEMP:  19; 6HR MAX TEMP:  27; 6HR PCP: TRACE;

SHEBOYGAN      SUNNY     28  18  66 NW12      30.12F WCI  18
6HR MIN TEMP:  21; 6HR MAX TEMP:  29;

WEST BEND      SUNNY     28  18  64 W10       30.13F WCI  19
JUNEAU         SUNNY     25  18  73 W7        30.15F WCI  17
$$

LSZ147-162-281900-
LAKE SUPERIOR

STATION/POSITION TIME  TEMP    WIND        PRES    WAVE
                       AIR SEA DIR/SP/G            HT/PER
                 (UTC) (F)     (DEG/KT/KT) (MB)    (FT/S)
DEVILS ISLAND    1700   13     330/ 11/ 14 1023.3R
PORT WING        1700   14     310/ 11/ 17 1022.7R
SAXON HARBOR     1700   19     310/ 13/ 18 1021.0R
$$

LMZ867-665-643>646-281900-
LAKE MICHIGAN

STATION/POSITION TIME  TEMP    WIND        PRES    WAVE
                       AIR SEA DIR/SP/G            HT/PER
                 (UTC) (F)     (DEG/KT/KT) (MB)    (FT/S)
CHAMBERS ISLAND  1700   23     240/  5/ 10 1019.6S
NORTHPORT PIER   1704   24     290/  4/ 16 1019.0S
SISTER BAY       1713          280/ 13/ 16   N/A
ALGOMA LAKESHORE 1545          310/ 10/ 19   N/A
KEWAUNEE LAKESHO 1700   24     280/ 12/ 15 1018.7F
SHEBOYGAN LAKESH 1700   26 36  290/ 10/ 13 1021.6F
PORT WASHINGTON  1700   29     280/  5/ 11 1021.7S
MILWAUKEE LAKESH 1700   29     260/  7/  9   N/A
KENOSHA   LAKESH 1700   28     270/  7/ 11 1021.7S
$$

TC  - TEMPERATURE IN CELSIUS
VSB - VISIBILITY IN STATUTE MILES
WCI - WIND CHILL INDEX
HX  - HEAT INDEX



USA.gov is the U.S. government's official web portal to all federal, state and local government web resources and services.